�N����,����,�~����,�C��,���x,�C��,����,���ϕ���,�ő�u�ԕ���,�ő厞����,���˗�,�I�_���x,�n�����x,�ő啗���N��,DTYPE
"17/03/05","00:10",0.0,5.3,77.6,1012.6,327.1,3.4,4.9,333.6,0.00,1.7,7.8,"00:04:40",1
"17/03/05","00:20",0.0,5.4,78.4,1012.1,325.5,3.2,4.4,329.9,0.00,2.0,8.0,"00:14:48",1
"17/03/05","00:30",0.0,5.4,77.8,1012.3,322.0,2.7,4.5,337.7,0.00,1.9,7.6,"00:22:16",1
"17/03/05","00:40",0.0,5.0,78.4,1012.3,312.8,2.3,3.4,306.1,0.00,1.6,7.4,"00:38:48",1
"17/03/05","00:50",0.0,4.9,79.7,1012.3,320.0,3.6,5.4,328.0,0.00,1.7,7.5,"00:45:04",1
"17/03/05","01:00",0.0,5.0,79.5,1012.3,303.4,2.7,4.7,312.1,0.00,1.8,7.7,"00:50:48",1
"17/03/05","01:10",0.0,4.6,80.0,1012.1,283.1,1.8,2.8,302.1,0.00,1.5,7.3,"01:04:00",1
"17/03/05","01:20",0.0,4.3,81.0,1012.3,300.5,1.5,2.2,309.0,0.00,1.4,7.4,"01:17:04",1
"17/03/05","01:30",0.0,4.1,82.1,1011.9,293.7,1.8,3.6,320.8,0.00,1.4,7.2,"01:24:00",1
"17/03/05","01:40",0.0,3.8,82.9,1011.9,295.1,1.1,2.0,317.7,0.00,1.2,7.4,"01:36:16",1
"17/03/05","01:50",0.0,3.6,83.6,1011.9,297.6,1.0,2.8,323.9,0.00,1.1,7.1,"01:47:02",1
"17/03/05","02:00",0.0,3.5,85.1,1011.9,301.6,2.1,4.0,324.9,0.00,1.3,7.1,"01:56:32",1
"17/03/05","02:10",0.0,3.7,84.8,1011.9,301.7,2.1,3.3,322.9,0.00,1.4,7.1,"02:00:02",1
"17/03/05","02:20",0.0,3.6,84.1,1011.6,287.9,1.0,2.7,334.6,0.00,1.2,7.0,"02:10:08",1
"17/03/05","02:30",0.0,3.3,84.7,1010.9,302.8,1.2,2.8,323.8,0.00,1.0,6.9,"02:29:54",1
"17/03/05","02:40",0.0,2.7,85.6,1010.9,310.7,2.1,3.3,322.6,0.00,0.6,6.8,"02:33:44",1
"17/03/05","02:50",0.0,2.4,86.9,1011.2,305.5,1.5,2.4,335.8,0.00,0.5,6.6,"02:44:56",1
"17/03/05","03:00",0.0,2.3,88.9,1010.9,278.0,1.7,4.4,323.0,0.00,0.7,6.7,"02:59:44",1
"17/03/05","03:10",0.0,3.3,88.4,1010.9,303.2,3.4,5.1,328.0,0.00,1.6,6.7,"03:08:00",1
"17/03/05","03:20",0.0,3.8,86.2,1010.9,312.6,4.0,6.4,322.1,0.00,1.7,6.7,"03:19:04",1
"17/03/05","03:30",0.0,4.4,83.3,1010.7,313.4,5.0,7.0,327.7,0.00,1.9,6.7,"03:27:20",1
"17/03/05","03:40",0.0,4.6,81.5,1010.7,307.3,4.6,6.3,327.7,0.00,1.8,6.8,"03:30:48",1
"17/03/05","03:50",0.0,4.2,81.8,1010.7,300.9,2.7,4.8,312.4,0.00,1.4,6.7,"03:40:08",1
"17/03/05","04:00",0.0,3.7,82.8,1010.7,306.2,2.1,3.6,309.3,0.00,1.1,6.5,"03:58:00",1
"17/03/05","04:10",0.0,3.2,83.7,1010.9,338.3,2.0,4.0,335.0,0.00,0.8,6.5,"04:01:52",1
"17/03/05","04:20",0.0,2.8,85.0,1010.9,308.4,1.7,3.3,337.4,0.00,0.6,6.5,"04:14:00",1
"17/03/05","04:30",0.0,2.6,85.9,1010.9,292.1,0.8,1.3,265.8,0.00,0.5,6.3,"04:21:44",1
"17/03/05","04:40",0.0,2.2,86.6,1010.9,280.6,1.1,1.6,281.3,0.00,0.2,6.3,"04:35:20",1
"17/03/05","04:50",0.0,1.8,87.9,1011.2,286.5,1.3,1.8,299.4,0.00,0.1,6.6,"04:43:04",1
"17/03/05","05:00",0.0,2.0,89.1,1010.9,288.8,1.7,2.7,295.2,0.00,0.4,6.2,"04:54:00",1
"17/03/05","05:10",0.0,2.3,89.6,1010.9,293.8,2.3,4.7,316.5,0.00,0.8,6.1,"05:06:40",1
"17/03/05","05:20",0.0,2.5,89.1,1011.2,292.4,2.1,2.9,326.5,0.00,0.9,6.0,"05:12:48",1
"17/03/05","05:30",0.0,2.5,88.9,1011.2,294.9,2.1,3.4,311.6,0.00,0.9,6.1,"05:26:56",1
"17/03/05","05:40",0.0,2.6,89.2,1011.2,309.8,2.8,4.8,312.5,0.00,1.0,6.1,"05:39:20",1
"17/03/05","05:50",0.0,2.9,88.0,1011.4,299.0,2.5,4.4,306.1,0.00,1.2,6.0,"05:45:12",1
"17/03/05","06:00",0.0,2.5,87.5,1011.2,284.6,1.6,2.1,289.8,0.00,0.7,6.3,"05:50:48",1
"17/03/05","06:10",0.0,2.2,87.9,1011.2,292.7,1.6,3.1,317.7,0.00,0.4,6.0,"06:09:26",1
"17/03/05","06:20",0.0,1.7,88.7,1011.6,310.8,2.5,3.5,325.7,0.00,0.1,6.1,"06:13:20",1
"17/03/05","06:30",0.0,1.4,90.2,1011.4,282.3,1.6,2.1,284.3,0.00,0.0,6.1,"06:29:20",1
"17/03/05","06:40",0.0,1.4,91.1,1011.4,299.7,2.0,2.7,308.0,0.00,0.1,5.9,"06:39:36",1
"17/03/05","06:50",0.0,1.4,91.6,1011.4,307.1,2.3,2.9,313.1,0.00,0.2,5.9,"06:49:04",1
"17/03/05","07:00",0.0,1.4,92.1,1011.6,304.9,2.3,2.8,314.9,0.00,0.3,5.8,"06:52:40",1
"17/03/05","07:10",0.0,1.7,92.6,1011.9,294.4,1.3,2.2,309.2,0.00,0.7,6.1,"07:01:28",1
"17/03/05","07:20",0.0,2.2,92.7,1011.9,279.6,0.8,1.3,297.7,0.01,1.2,5.8,"07:15:28",1
"17/03/05","07:30",0.0,3.0,91.1,1011.9,281.0,0.7,1.4,284.7,0.02,1.7,6.0,"07:21:28",1
"17/03/05","07:40",0.0,3.9,89.1,1012.1,293.0,0.8,2.0,312.3,0.04,2.3,6.0,"07:33:04",1
"17/03/05","07:50",0.0,4.7,87.0,1012.6,260.8,0.3,1.0,271.6,0.06,2.8,6.0,"07:40:48",1
"17/03/05","08:00",0.0,5.7,82.6,1012.8,307.4,0.8,1.7,286.6,0.07,3.0,6.1,"07:52:32",1
"17/03/05","08:10",0.0,6.1,80.0,1013.0,2.3,0.2,1.0,297.3,0.09,3.0,6.2,"08:01:36",1
"17/03/05","08:20",0.0,6.9,76.4,1013.8,310.6,1.1,1.8,332.3,0.10,3.1,6.1,"08:18:32",1
"17/03/05","08:30",0.0,7.2,76.6,1013.8,284.0,0.6,1.6,322.1,0.12,3.4,6.2,"08:20:08",1
"17/03/05","08:40",0.0,7.7,73.6,1013.8,278.6,1.2,2.0,312.6,0.17,3.3,6.6,"08:33:12",1
"17/03/05","08:50",0.0,8.3,70.8,1013.8,272.8,1.3,2.4,308.3,0.20,3.4,6.8,"08:48:32",1
"17/03/05","09:00",0.0,8.8,71.1,1013.8,272.0,1.3,2.4,307.5,0.21,3.9,6.7,"08:56:24",1
"17/03/05","09:10",0.0,9.2,67.8,1013.5,272.3,1.6,3.2,255.2,0.24,3.6,6.9,"09:07:28",1
"17/03/05","09:20",0.0,9.4,65.4,1013.8,262.1,2.0,3.2,304.1,0.26,3.3,7.1,"09:17:04",1
"17/03/05","09:30",0.0,10.2,63.5,1013.5,272.4,1.5,2.6,299.7,0.29,3.6,7.5,"09:26:56",1
"17/03/05","09:40",0.0,10.9,59.2,1013.3,210.6,0.6,1.9,121.7,0.32,3.3,7.4,"09:39:52",1
"17/03/05","09:50",0.0,11.0,59.6,1013.5,210.9,1.1,1.8,202.7,0.36,3.5,7.8,"09:43:20",1
"17/03/05","10:00",0.0,11.3,57.4,1012.8,216.0,1.3,3.5,235.0,0.36,3.2,8.0,"09:54:56",1
"17/03/05","10:10",0.0,11.8,56.5,1012.6,235.0,0.8,1.9,237.7,0.39,3.5,8.2,"10:08:08",1
"17/03/05","10:20",0.0,11.9,55.6,1012.6,199.4,1.1,2.4,236.6,0.40,3.3,8.6,"10:15:04",1
"17/03/05","10:30",0.0,12.5,53.9,1012.3,206.4,1.1,2.6,156.7,0.42,3.5,8.9,"10:25:44",1
"17/03/05","10:40",0.0,12.4,51.6,1012.1,142.3,1.5,2.7,114.3,0.45,2.8,9.2,"10:36:24",1
"17/03/05","10:50",0.0,12.9,48.2,1011.9,157.5,1.1,3.2,126.3,0.46,2.3,9.2,"10:48:08",1
"17/03/05","11:00",0.0,13.5,44.7,1011.4,164.9,1.1,2.9,122.6,0.46,1.8,9.7,"10:59:52",1
"17/03/05","11:10",0.0,13.7,46.1,1011.2,143.9,1.7,3.1,118.3,0.48,2.4,9.8,"11:01:20",1
"17/03/05","11:20",0.0,14.0,46.3,1010.9,166.8,1.1,2.6,108.6,0.50,2.7,10.0,"11:18:16",1
"17/03/05","11:30",0.0,14.3,44.8,1010.9,161.7,1.6,3.5,196.8,0.51,2.5,10.4,"11:25:04",1
"17/03/05","11:40",0.0,14.3,45.3,1010.4,127.8,1.7,3.6,108.8,0.50,2.7,10.4,"11:36:00",1
"17/03/05","11:50",0.0,14.7,45.7,1010.2,134.9,1.8,3.6,147.8,0.47,3.2,10.7,"11:41:20",1
"17/03/05","12:00",0.0,14.7,44.9,1010.0,180.1,1.6,3.5,92.9,0.46,2.9,11.2,"11:57:36",1
"17/03/05","12:10",0.0,15.1,46.5,1009.5,137.4,1.6,4.5,97.8,0.41,3.8,11.3,"12:03:04",1
"17/03/05","12:20",0.0,15.2,46.6,1009.5,161.4,2.1,4.4,146.7,0.44,3.9,11.3,"12:10:02",1
"17/03/05","12:30",0.0,15.1,43.0,1009.3,172.7,1.7,4.2,203.4,0.44,2.7,11.5,"12:26:40",1
"17/03/05","12:40",0.0,15.4,43.6,1009.0,170.1,2.0,3.5,235.2,0.41,3.1,11.6,"12:32:48",1
"17/03/05","12:50",0.0,15.1,43.3,1009.0,144.6,1.7,3.5,146.1,0.38,2.8,11.7,"12:43:52",1
"17/03/05","13:00",0.0,15.8,43.3,1008.6,160.6,1.3,2.8,117.3,0.36,3.4,11.9,"12:56:24",1
"17/03/05","13:10",0.0,15.8,43.5,1008.6,173.9,1.8,4.0,174.8,0.36,3.5,11.8,"13:05:28",1
"17/03/05","13:20",0.0,16.0,43.3,1008.1,189.9,1.8,3.5,191.1,0.37,3.6,12.1,"13:17:20",1
"17/03/05","13:30",0.0,15.6,42.8,1008.1,173.3,2.0,3.6,128.3,0.36,3.1,12.2,"13:24:32",1
"17/03/05","13:40",0.0,15.3,43.8,1007.6,147.7,1.8,4.8,121.1,0.27,3.1,12.1,"13:33:28",1
"17/03/05","13:50",0.0,15.5,43.1,1007.8,177.1,1.6,2.6,162.0,0.27,3.1,12.2,"13:46:32",1
"17/03/05","14:00",0.0,15.2,43.3,1007.8,140.8,1.5,3.9,118.2,0.23,2.9,12.3,"13:53:20",1
"17/03/05","14:10",0.0,15.4,42.3,1007.4,216.5,1.1,2.7,149.8,0.20,2.7,12.2,"14:02:00",1
"17/03/05","14:20",0.0,15.6,42.0,1007.6,161.6,1.3,3.1,162.2,0.20,2.8,12.2,"14:16:08",1
"17/03/05","14:30",0.0,15.8,43.1,1007.6,183.8,1.2,2.2,125.5,0.19,3.3,12.3,"14:22:40",1
"17/03/05","14:40",0.0,15.7,40.9,1007.4,358.4,1.3,2.8,341.0,0.18,2.5,12.2,"14:38:24",1
"17/03/05","14:50",0.0,15.8,40.1,1007.6,343.9,0.8,1.7,354.0,0.17,2.3,12.3,"14:47:44",1
"17/03/05","15:00",0.0,15.8,40.5,1007.6,335.4,0.8,2.0,329.6,0.15,2.5,12.4,"14:52:32",1
"17/03/05","15:10",0.0,15.7,41.9,1007.4,317.5,1.6,2.9,332.1,0.11,2.8,12.1,"15:08:56",1
"17/03/05","15:20",0.0,15.5,39.2,1007.6,348.9,1.1,2.5,319.7,0.11,1.7,12.1,"15:10:56",1
"17/03/05","15:30",0.0,15.7,40.1,1007.1,312.2,1.0,2.2,263.5,0.12,2.2,12.0,"15:29:04",1
"17/03/05","15:40",0.0,15.7,40.2,1007.4,251.0,1.5,2.7,229.7,0.13,2.3,12.1,"15:36:40",1
"17/03/05","15:50",0.0,15.7,38.9,1007.4,230.0,2.1,4.2,211.6,0.12,1.8,12.1,"15:44:16",1
"17/03/05","16:00",0.0,15.7,39.1,1006.9,256.4,1.6,2.8,247.2,0.11,1.9,11.9,"15:54:00",1
"17/03/05","16:10",0.0,15.5,41.3,1007.1,275.4,1.7,3.5,309.4,0.07,2.5,12.0,"16:07:28",1
"17/03/05","16:20",0.0,15.3,39.3,1007.4,281.6,1.6,2.5,308.9,0.06,1.6,12.0,"16:12:48",1
"17/03/05","16:30",0.0,15.1,39.8,1007.1,256.8,1.7,4.0,236.8,0.05,1.6,11.8,"16:26:40",1
"17/03/05","16:40",0.0,15.0,39.9,1007.1,235.5,1.5,3.1,311.8,0.04,1.5,11.6,"16:30:02",1
"17/03/05","16:50",0.0,15.0,40.4,1007.1,243.3,1.6,2.8,303.4,0.04,1.7,11.8,"16:40:16",1
"17/03/05","17:00",0.0,14.9,38.4,1007.1,272.5,1.5,2.7,308.1,0.03,0.9,11.5,"16:53:20",1
"17/03/05","17:10",0.0,14.7,37.7,1007.4,269.1,1.8,3.4,243.4,0.02,0.5,11.7,"17:00:02",1
"17/03/05","17:20",0.0,14.6,36.5,1007.4,264.6,2.1,4.1,236.7,0.01,-0.1,11.5,"17:10:08",1
"17/03/05","17:30",0.0,14.4,37.2,1007.4,282.1,1.5,2.5,263.5,0.00,0.0,11.4,"17:20:16",1
"17/03/05","17:40",0.0,14.2,39.1,1007.8,266.5,1.7,4.0,231.6,0.00,0.5,11.2,"17:38:24",1
"17/03/05","17:50",0.0,14.1,39.6,1008.1,263.3,1.8,3.1,255.1,0.00,0.6,11.2,"17:46:32",1
"17/03/05","18:00",0.0,13.8,41.2,1008.1,263.3,1.2,2.2,244.3,0.00,0.9,11.0,"17:55:04",1
"17/03/05","18:10",0.0,13.6,43.6,1007.8,261.1,1.2,1.9,241.2,0.00,1.5,11.1,"18:02:40",1
"17/03/05","18:20",0.0,13.5,43.3,1008.1,255.4,1.7,3.1,253.3,0.00,1.3,11.0,"18:16:08",1
"17/03/05","18:30",0.0,13.3,44.1,1007.8,268.8,1.5,2.5,247.3,0.00,1.4,10.9,"18:21:04",1
"17/03/05","18:40",0.0,13.1,45.2,1007.8,266.3,1.3,2.7,244.8,0.00,1.5,10.7,"18:34:00",1
"17/03/05","18:50",0.0,12.7,47.3,1007.8,271.7,1.1,2.1,241.0,0.00,1.8,10.8,"18:47:44",1
"17/03/05","19:00",0.0,12.5,48.7,1007.6,249.2,1.2,2.9,240.3,0.00,2.0,10.7,"18:56:00",1
"17/03/05","19:10",0.0,12.4,48.1,1008.1,281.5,1.5,2.8,261.5,0.00,1.8,10.6,"19:07:52",1
"17/03/05","19:20",0.0,12.0,53.5,1007.8,320.7,2.1,2.6,330.5,0.00,2.9,10.2,"19:12:24",1
"17/03/05","19:30",0.0,11.3,56.7,1007.8,331.2,2.0,2.2,334.8,0.00,3.1,10.3,"19:21:28",1
"17/03/05","19:40",0.0,10.8,58.9,1008.1,331.5,1.6,2.2,329.5,0.00,3.1,10.4,"19:34:24",1
"17/03/05","19:50",0.0,10.5,61.0,1008.3,318.5,1.2,2.0,334.4,0.00,3.3,10.2,"19:40:32",1
"17/03/05","20:00",0.0,10.3,62.1,1008.3,273.6,1.2,1.6,275.4,0.00,3.4,10.1,"19:59:28",1
"17/03/05","20:10",0.0,10.4,62.2,1007.8,302.3,1.5,1.9,320.3,0.00,3.5,10.0,"20:03:14",1
"17/03/05","20:20",0.0,10.2,63.9,1007.6,312.2,1.6,2.1,320.4,0.00,3.7,10.1,"20:14:04",1
"17/03/05","20:30",0.0,9.8,65.4,1007.4,295.5,1.2,1.8,314.0,0.00,3.7,9.9,"20:29:02",1
"17/03/05","20:40",0.0,9.5,65.9,1007.6,311.2,1.5,1.7,317.6,0.00,3.5,9.9,"20:37:48",1
"17/03/05","20:50",0.0,9.2,69.0,1007.6,319.7,2.1,2.7,321.5,0.00,3.9,9.9,"20:45:14",1
"17/03/05","21:00",0.0,8.8,70.6,1007.6,332.3,2.1,2.8,341.2,0.00,3.8,9.9,"20:58:08",1
"17/03/05","21:10",0.0,8.5,71.3,1007.6,314.2,1.7,2.8,334.0,0.00,3.6,9.9,"21:02:00",1
"17/03/05","21:20",0.0,8.4,72.0,1007.6,313.3,1.8,2.7,344.8,0.00,3.7,9.6,"21:15:44",1
"17/03/05","21:30",0.0,8.6,71.9,1007.8,312.5,2.3,3.3,316.3,0.00,3.9,9.6,"21:26:32",1
"17/03/05","21:40",0.0,9.0,71.3,1007.6,332.5,2.5,3.4,335.8,0.00,4.1,9.6,"21:33:12",1
"17/03/05","21:50",0.0,9.2,69.8,1007.6,320.6,2.8,4.3,331.8,0.00,4.0,9.5,"21:45:52",1
"17/03/05","22:00",0.0,9.3,69.2,1007.8,308.5,2.7,4.4,323.5,0.00,4.0,9.5,"21:53:04",1
"17/03/05","22:10",0.0,9.2,69.2,1007.8,309.7,1.0,3.7,320.0,0.00,3.9,9.4,"22:00:24",1
"17/03/05","22:20",0.0,9.1,69.3,1007.8,303.6,1.5,2.0,327.6,0.00,3.8,9.5,"22:15:52",1
"17/03/05","22:30",0.0,9.0,70.4,1007.8,297.5,2.0,2.8,316.7,0.00,3.9,9.5,"22:28:08",1
"17/03/05","22:40",0.0,9.1,70.0,1007.8,299.1,2.2,2.7,310.4,0.00,4.0,9.2,"22:30:56",1
"17/03/05","22:50",0.0,9.1,69.6,1007.8,297.0,2.0,2.7,317.3,0.00,3.9,9.4,"22:49:52",1
"17/03/05","23:00",0.0,9.1,69.4,1007.4,296.2,2.1,2.8,325.0,0.00,3.8,9.2,"22:50:02",1
"17/03/05","23:10",0.0,9.1,68.5,1006.9,312.7,2.1,3.7,319.9,0.00,3.7,9.1,"23:00:08",1
"17/03/05","23:20",0.0,8.8,68.9,1007.1,314.1,1.8,2.7,319.4,0.00,3.5,9.2,"23:10:48",1
"17/03/05","23:30",0.0,8.4,70.5,1006.9,311.7,2.2,4.1,322.9,0.00,3.4,9.1,"23:27:36",1
"17/03/05","23:40",0.0,7.9,71.8,1006.7,308.7,0.7,2.1,321.3,0.00,3.2,8.9,"23:31:36",1
"17/03/05","23:50",0.0,7.5,73.0,1006.7,287.1,1.1,2.1,284.6,0.00,3.0,9.0,"23:47:12",1
"17/03/05","24:00",0.0,7.2,74.2,1006.2,305.6,2.3,2.8,314.2,0.00,3.0,8.8,"23:51:44",1
